This is the latest recevied weather packets stored in our database for station/object CE3MXM-12. If no packets are shown the sender has not sent any weather packets the latest 10 day(s).
| Time | Temp. | Humidity | Pressure | Rain* | Wind** | Luminosity | Snow |
|---|---|---|---|---|---|---|---|
| 1777890570 | 12.78° C | 91% | 1015.2 hPa | - | - | - | - |
| 1777890270 | 12.22° C | 91% | 1015.3 hPa | - | - | - | - |
| 1777889970 | 12.22° C | 89% | 1015.2 hPa | - | - | - | - |
| 1777889670 | 12.22° C | 88% | 1015 hPa | - | - | - | - |
| 1777889370 | 12.78° C | 86% | 1015 hPa | - | - | - | - |
| 1777889070 | 12.78° C | 85% | 1015.1 hPa | - | - | - | - |
| 1777888770 | 13.33° C | 85% | 1015 hPa | - | - | - | - |
| 1777888470 | 13.33° C | 82% | 1015 hPa | - | - | - | - |
| 1777888169 | 13.89° C | 79% | 1015 hPa | - | - | - | - |
| 1777887869 | 13.89° C | 80% | 1014.9 hPa | - | - | - | - |
| 1777887569 | 13.89° C | 77% | 1014.9 hPa | - | - | - | - |
| 1777887269 | 13.89° C | 74% | 1014.8 hPa | - | - | - | - |
| 1777886969 | 13.89° C | 73% | 1014.8 hPa | - | - | - | - |
| 1777886669 | 14.44° C | 70% | 1015 hPa | - | - | - | - |
| 1777886369 | 14.44° C | 68% | 1015.1 hPa | - | - | - | - |
| 1777886069 | 14.44° C | 65% | 1015 hPa | - | - | - | - |
| 1777885769 | 14.44° C | 69% | 1015 hPa | - | - | - | - |
| 1777885469 | 14.44° C | 67% | 1014.8 hPa | - | - | - | - |
| 1777885169 | 14.44° C | 62% | 1014.8 hPa | - | - | - | - |
| 1777884868 | 14.44° C | 55% | 1014.9 hPa | - | - | - | - |
| 1777884568 | 14.44° C | 60% | 1014.8 hPa | - | - | - | - |
| 1777884268 | 14.44° C | 60% | 1015 hPa | - | - | - | - |
| 1777883968 | 15° C | 64% | 1015 hPa | - | - | - | - |
| 1777883668 | 15° C | 68% | 1014.8 hPa | - | - | - | - |
| 1777883368 | 15° C | 67% | 1015 hPa | - | - | - | - |
* Rain since midnight (hover to see other rain measurements)
** Current wind speed in m/s (hover to see current wind gust speed)